This demonstration page uses our WeatherBlox Daily Observations layout. Learn more.

Left ArrowRight Arrow

Hourly Observations for January 2, 2015

Temp ( °F °C ) Dew Point ( °F °C ) Humidity (%) Winds ( mph kmh ) Pressure ( in mb ) Visibility ( mi km ) Precip ( " mm )
12:52 am 00:52 Clear 18 -7.8 16 -8.9 92 92 NNW 3 6 30.21 1023 10 16 0.00 0.00
1:52 am 01:52 Clear 18 -7.8 13 -10.6 81 81 Calm 30.21 1023 10 16 0.00 0.00
2:52 am 02:52 Clear 17 -8.3 14 -10 88 88 Calm 30.24 1024 10 16 0.00 0.00
3:52 am 03:52 Clear 16 -8.9 14 -10 92 92 Calm 30.23 1024 10 16 0.00 0.00
4:52 am 04:52 Clear 15 -9.4 12 -11.1 88 88 N 5 7 30.23 1024 10 16 0.00 0.00
5:52 am 05:52 Mostly Cloudy 16 -8.9 14 -10 92 92 NNW 5 7 30.24 1024 10 16 0.00 0.00
6:52 am 06:52 Partly Cloudy 17 -8.3 14 -10 88 88 N 8 13 30.24 1024 10 16 0.00 0.00
7:52 am 07:52 Mostly Cloudy 16 -8.9 13 -10.6 88 88 NNW 6 9 30.26 1025 10 16 0.00 0.00
8:52 am 08:52 Mostly Cloudy 18 -7.8 15 -9.4 88 88 Calm 30.28 1025 10 16 0.00 0.00
9:52 am 09:52 Mostly Cloudy 22 -5.6 17 -8.3 82 82 Calm 30.28 1026 8 13 0.00 0.00
10:52 am 10:52 Mostly Cloudy 23 -5 19 -7.2 85 85 S 6 9 30.28 1026 10 16 0.00 0.00
11:52 am 11:52 Mostly Cloudy 27 -2.8 19 -7.2 72 72 SSE 7 11 30.22 1024 10 16 0.00 0.00
12:52 pm 12:52 Mostly Cloudy 30 -1.1 18 -7.8 61 61 S 8 13 30.19 1022 10 16 0.00 0.00
1:52 pm 13:52 Mostly Cloudy 32 0 18 -7.8 56 56 SE 8 13 30.16 1021 10 16 0.00 0.00
2:52 pm 14:52 Mostly Cloudy 33 0.6 18 -7.8 54 54 S 12 19 30.16 1021 10 16 0.00 0.00
3:52 pm 15:52 Mostly Cloudy 33 0.6 21 -6.1 61 61 S 13 20 30.14 1021 10 16 0.00 0.00
4:52 pm 16:52 Cloudy 32 0 21 -6.1 64 64 SSE 9 15 30.11 1020 10 16 0.00 0.00
5:52 pm 17:52 Cloudy 32 0 22 -5.6 66 66 SSE 7 11 30.12 1020 10 16 0.00 0.00
6:52 pm 18:52 Cloudy 32 0 23 -5 69 69 SSE 3 6 30.11 1020 10 16 0.00 0.00
7:52 pm 19:52 Cloudy 31 -0.6 23 -5 72 72 SE 5 7 30.10 1019 10 16 0.00 0.00
8:52 pm 20:52 Mostly Clear 26 -3.3 21 -6.1 81 81 SSE 8 13 30.07 1018 10 16 0.00 0.00
9:52 pm 21:52 Partly Cloudy 25 -3.9 21 -6.1 85 85 SSE 6 9 30.06 1018 10 16 0.00 0.00
10:52 pm 22:52 Clear 25 -3.9 21 -6.1 85 85 SSE 8 13 30.04 1017 10 16 0.00 0.00
11:52 pm 23:52 Mostly Cloudy 24 -4.4 21 -6.1 88 88 SSE 6 9 30.03 1017 10 16 0.00 0.00

Powered by AerisWeather